| time (UTC) | temp F | wind direction | speed knots | gust knots | rain 1hr in | rain 24hr in | rain mn in | humidity % | barometer mb |
| 20260510044735 | 53 | 238 | 0.0 | 4.3 | 0.00 | 0.00 | 0.00 | 95 | 1005.9 |
| 20260510044236 | 52 | 246 | 0.0 | 4.3 | 0.00 | 0.00 | 0.00 | 95 | 1005.7 |
| 20260510043737 | 52 | 133 | 0.0 | 0.9 | 0.00 | 0.00 | 0.00 | 95 | 1005.6 |
| 20260510043233 | 52 | 133 | 0.0 | 0.0 | 0.00 | 0.00 | 0.00 | 95 | 1005.3 |
| 20260510042719 | 52 | 133 | 0.0 | 0.0 | 0.00 | 0.00 | 0.00 | 95 | 1005.1 |
| 20260510042210 | 52 | 133 | 0.0 | 0.0 | 0.00 | 0.00 | 0.00 | 94 | 1004.9 |
| 20260510041650 | 52 | 133 | 0.0 | 0.0 | 0.00 | 0.00 | 0.00 | 94 | 1004.6 |
| 20260510040346 | 52 | 133 | 0.0 | 0.0 | 0.00 | 0.62 | 0.00 | 94 | 1004.5 |
| 20260510035844 | 53 | 133 | 0.0 | 0.0 | 0.00 | 0.62 | 0.62 | 94 | 1004.5 |
| 20260510035600 | 53 | 133 | 0.0 | 1.7 | 0.00 | 0.62 | 0.62 | 94 | 1004.3 |
| 20260510034829 | 53 | 133 | 0.0 | 1.7 | 0.00 | 0.62 | 0.62 | 94 | 1004.4 |
| 20260510034558 | 53 | 193 | 0.0 | 0.0 | 0.00 | 0.62 | 0.62 | 94 | 1004.5 |
| 20260510033824 | 53 | 193 | 0.0 | 1.7 | 0.00 | 0.62 | 0.62 | 94 | 1004.6 |
| 20260510033305 | 53 | 193 | 0.0 | 2.6 | 0.00 | 0.62 | 0.62 | 94 | 1004.5 |
| 20260510032803 | 53 | 189 | 0.9 | 3.5 | 0.00 | 0.62 | 0.62 | 94 | 1004.4 |
| 20260510032306 | 53 | 188 | 0.0 | 3.5 | 0.00 | 0.62 | 0.62 | 94 | 1004.3 |
| 20260510031800 | 53 | 173 | 0.0 | 2.6 | 0.00 | 0.62 | 0.62 | 94 | 1004.4 |
| 20260510031256 | 53 | 173 | 0.0 | 2.6 | 0.00 | 0.62 | 0.62 | 95 | 1004.5 |
| 20260510030742 | 53 | 252 | 0.0 | 2.6 | 0.00 | 0.62 | 0.62 | 95 | 1004.5 |
| 20260510030238 | 53 | 183 | 0.0 | 1.7 | 0.00 | 0.62 | 0.62 | 95 | 1004.6 |
| 20260510025738 | 52 | 196 | 0.0 | 1.7 | 0.00 | 0.62 | 0.62 | 94 | 1004.6 |
| 20260510025436 | 52 | 196 | 0.0 | 1.7 | 0.00 | 0.62 | 0.62 | 94 | 1004.5 |
| 20260510024719 | 52 | 189 | 0.0 | 1.7 | 0.00 | 0.62 | 0.62 | 94 | 1004.6 |
| 20260510024204 | 53 | 200 | 0.0 | 2.6 | 0.00 | 0.62 | 0.62 | 94 | 1004.6 |
| 20260510023656 | 53 | 188 | 0.0 | 1.7 | 0.00 | 0.62 | 0.62 | 94 | 1004.6 |
| 20260510022636 | 53 | 163 | 0.9 | 3.5 | 0.00 | 0.62 | 0.62 | 94 | 1004.7 |
| 20260510022137 | 53 | 232 | 0.9 | 4.3 | 0.00 | 0.62 | 0.62 | 94 | 1004.7 |
| 20260510021626 | 53 | 174 | 0.0 | 4.3 | 0.00 | 0.62 | 0.62 | 94 | 1004.5 |
| 20260510021337 | 53 | 209 | 0.0 | 1.7 | 0.00 | 0.62 | 0.62 | 94 | 1004.5 |
| 20260510020609 | 53 | 220 | 0.0 | 1.7 | 0.00 | 0.62 | 0.62 | 94 | 1004.4 |
| 20260510020058 | 53 | 221 | 0.0 | 2.6 | 0.00 | 0.62 | 0.62 | 94 | 1004.7 |
| 20260510015553 | 53 | 217 | 0.0 | 2.6 | 0.00 | 0.62 | 0.62 | 94 | 1004.7 |
| 20260510015306 | 53 | 225 | 0.0 | 3.5 | 0.00 | 0.62 | 0.62 | 94 | 1004.6 |
| 20260510014546 | 53 | 225 | 0.0 | 5.2 | 0.00 | 0.62 | 0.62 | 94 | 1004.5 |
| 20260510014039 | 53 | 226 | 0.9 | 5.2 | 0.00 | 0.62 | 0.62 | 94 | 1004.5 |
| 20260510013538 | 53 | 227 | 0.9 | 5.2 | 0.00 | 0.62 | 0.62 | 95 | 1004.3 |
| 20260510012759 | 53 | 225 | 0.0 | 3.5 | 0.00 | 0.62 | 0.62 | 94 | 1004.3 |
| 20260510012032 | 53 | 222 | 0.0 | 3.5 | 0.00 | 0.62 | 0.62 | 94 | 1004.3 |
| 20260510011521 | 53 | 185 | 0.0 | 1.7 | 0.00 | 0.62 | 0.62 | 94 | 1004.3 |
| 20260510011016 | 53 | 184 | 0.0 | 1.7 | 0.00 | 0.62 | 0.62 | 94 | 1004.2 |
| 20260510010513 | 53 | 188 | 0.0 | 3.5 | 0.00 | 0.62 | 0.62 | 94 | 1004.1 |
| 20260510005947 | 53 | 186 | 0.0 | 3.5 | 0.00 | 0.62 | 0.62 | 94 | 1004.1 |
| 20260510005702 | 53 | 172 | 0.0 | 4.3 | 0.00 | 0.62 | 0.62 | 94 | 1004.0 |
| 20260510004934 | 53 | 169 | 0.0 | 4.3 | 0.00 | 0.62 | 0.62 | 94 | 1003.9 |
| 20260510004700 | 53 | 195 | 0.0 | 1.7 | 0.01 | 0.62 | 0.62 | 94 | 1003.8 |
| 20260510003917 | 53 | 246 | 0.0 | 2.6 | 0.03 | 0.62 | 0.62 | 94 | 1003.9 |
| 20260510003417 | 53 | 211 | 0.9 | 4.3 | 0.05 | 0.62 | 0.62 | 94 | 1003.9 |
| 20260510002910 | 53 | 166 | 0.0 | 4.3 | 0.09 | 0.62 | 0.62 | 94 | 1003.9 |
| 20260510002408 | 53 | 214 | 0.0 | 2.6 | 0.12 | 0.62 | 0.62 | 94 | 1003.9 |
| 20260510001857 | 53 | 180 | 0.0 | 2.6 | 0.15 | 0.62 | 0.62 | 94 | 1003.8 |
| 20260510001345 | 53 | 188 | 0.0 | 7.8 | 0.19 | 0.62 | 0.62 | 94 | 1003.7 |
| 20260510000836 | 53 | 244 | 0.0 | 7.8 | 0.24 | 0.62 | 0.62 | 94 | 1003.6 |
| 20260510000335 | 53 | 223 | 0.9 | 3.5 | 0.27 | 0.62 | 0.62 | 94 | 1003.5 |
| 20260509235832 | 53 | 207 | 0.9 | 3.5 | 0.31 | 0.62 | 0.62 | 94 | 1003.5 |
| 20260509235322 | 53 | 194 | 0.9 | 6.1 | 0.38 | 0.62 | 0.62 | 94 | 1003.6 |
| 20260509234818 | 53 | 225 | 0.9 | 6.1 | 0.57 | 0.61 | 0.62 | 94 | 1003.8 |
| 20260509234312 | 53 | 186 | 0.9 | 4.3 | 0.60 | 0.61 | 0.61 | 93 | 1003.6 |
| 20260509233808 | 53 | 246 | 0.9 | 4.3 | 0.58 | 0.59 | 0.59 | 93 | 1003.9 |
| 20260509233305 | 52 | 232 | 0.9 | 5.2 | 0.55 | 0.56 | 0.57 | 93 | 1004.4 |
| 20260509232804 | 52 | 180 | 0.9 | 5.2 | 0.51 | 0.52 | 0.53 | 93 | 1004.4 |
| 20260509232255 | 52 | 309 | 1.7 | 9.6 | 0.48 | 0.49 | 0.50 | 92 | 1004.5 |
| 20260509231752 | 52 | 260 | 1.7 | 9.6 | 0.45 | 0.46 | 0.46 | 92 | 1004.5 |
| 20260509231456 | 52 | 296 | 1.7 | 6.1 | 0.41 | 0.42 | 0.42 | 91 | 1004.5 |
| 20260509230732 | 52 | 311 | 1.7 | 6.1 | 0.36 | 0.37 | 0.38 | 91 | 1004.5 |
| 20260509230231 | 52 | 305 | 2.6 | 13.0 | 0.33 | 0.34 | 0.35 | 90 | 1004.4 |
| 20260509225733 | 53 | 300 | 2.6 | 13.0 | 0.29 | 0.30 | 0.30 | 87 | 1004.4 |
| 20260509225447 | 54 | 293 | 4.3 | 11.3 | 0.19 | 0.20 | 0.23 | 83 | 1004.3 |
| 20260509224723 | 57 | 314 | 3.5 | 11.3 | 0.02 | 0.03 | 0.03 | 76 | 1004.8 |
| 20260509224222 | 62 | 0 | 1.7 | 11.3 | 0.00 | 0.01 | 0.01 | 69 | 1003.9 |
| 20260509223721 | 65 | 55 | 0.0 | 3.5 | 0.00 | 0.01 | 0.01 | 67 | 1002.7 |
| 20260509223223 | 65 | 192 | 0.0 | 2.6 | 0.00 | 0.01 | 0.01 | 63 | 1002.2 |
| 20260509222702 | 65 | 211 | 0.9 | 5.2 | 0.00 | 0.01 | 0.01 | 60 | 1002.4 |
| 20260509222157 | 65 | 205 | 0.9 | 5.2 | 0.00 | 0.01 | 0.01 | 59 | 1001.8 |
| 20260509221657 | 65 | 211 | 0.9 | 4.3 | 0.00 | 0.01 | 0.01 | 60 | 1001.7 |
| 20260509221154 | 65 | 182 | 0.9 | 4.3 | 0.00 | 0.01 | 0.01 | 59 | 1001.6 |
| 20260509220403 | 66 | 194 | 1.7 | 8.7 | 0.00 | 0.01 | 0.01 | 58 | 1001.5 |
| 20260509215628 | 66 | 218 | 1.7 | 8.7 | 0.00 | 0.01 | 0.01 | 58 | 1001.5 |
| 20260509215123 | 66 | 150 | 1.7 | 11.3 | 0.00 | 0.01 | 0.01 | 58 | 1001.5 |
| 20260509214624 | 66 | 254 | 2.6 | 11.3 | 0.00 | 0.01 | 0.01 | 57 | 1001.4 |
| 20260509214121 | 67 | 124 | 2.6 | 10.4 | 0.00 | 0.01 | 0.01 | 58 | 1001.4 |
| 20260509213618 | 67 | 238 | 3.5 | 10.4 | 0.00 | 0.01 | 0.01 | 55 | 1001.3 |
| 20260509213335 | 68 | 128 | 3.5 | 12.2 | 0.00 | 0.01 | 0.01 | 56 | 1001.4 |
| 20260509212618 | 69 | 198 | 2.6 | 12.2 | 0.00 | 0.01 | 0.01 | 55 | 1001.3 |
| 20260509212115 | 69 | 192 | 3.5 | 14.8 | 0.00 | 0.01 | 0.01 | 54 | 1001.3 |
| 20260509211614 | 68 | 69 | 5.2 | 14.8 | 0.00 | 0.01 | 0.01 | 56 | 1001.3 |
| 20260509211114 | 68 | 223 | 4.3 | 13.9 | 0.00 | 0.01 | 0.01 | 56 | 1001.4 |
| 20260509210610 | 69 | 195 | 3.5 | 13.9 | 0.00 | 0.01 | 0.01 | 56 | 1001.4 |
| 20260509210104 | 69 | 192 | 3.5 | 12.2 | 0.00 | 0.01 | 0.01 | 57 | 1001.5 |
| 20260509205602 | 69 | 205 | 3.5 | 12.2 | 0.00 | 0.01 | 0.01 | 57 | 1001.4 |
| 20260509205055 | 69 | 177 | 1.7 | 12.2 | 0.00 | 0.01 | 0.01 | 57 | 1001.5 |
| 20260509204551 | 68 | 279 | 2.6 | 11.3 | 0.00 | 0.01 | 0.01 | 61 | 1001.4 |
| 20260509204045 | 68 | 61 | 4.3 | 11.3 | 0.00 | 0.01 | 0.01 | 59 | 1001.7 |
| 20260509203544 | 69 | 219 | 3.5 | 12.2 | 0.00 | 0.01 | 0.01 | 59 | 1002.0 |
| 20260509203044 | 68 | 182 | 3.5 | 12.2 | 0.00 | 0.01 | 0.01 | 57 | 1002.0 |
| 20260509202039 | 68 | 245 | 3.5 | 12.2 | 0.00 | 0.01 | 0.01 | 58 | 1002.1 |
| 20260509201538 | 68 | 314 | 2.6 | 10.4 | 0.00 | 0.01 | 0.01 | 60 | 1002.3 |
| 20260509201035 | 66 | 182 | 3.5 | 13.0 | 0.00 | 0.01 | 0.01 | 62 | 1002.3 |
| 20260509200752 | 66 | 115 | 3.5 | 14.8 | 0.00 | 0.01 | 0.01 | 61 | 1002.4 |
| 20260509200026 | 66 | 224 | 2.6 | 14.8 | 0.00 | 0.01 | 0.01 | 60 | 1002.5 |
| 20260509195525 | 66 | 133 | 2.6 | 8.7 | 0.00 | 0.01 | 0.01 | 59 | 1002.7 |
| 20260509194519 | 68 | 92 | 2.6 | 10.4 | 0.00 | 0.01 | 0.01 | 59 | 1002.6 |
| 20260509194016 | 68 | 170 | 2.6 | 10.4 | 0.00 | 0.01 | 0.01 | 58 | 1002.6 |
| 20260509193509 | 69 | 235 | 3.5 | 10.4 | 0.00 | 0.01 | 0.01 | 59 | 1002.6 |
| 20260509193007 | 69 | 97 | 3.5 | 10.4 | 0.00 | 0.01 | 0.01 | 56 | 1002.7 |
| 20260509192502 | 69 | 243 | 2.6 | 10.4 | 0.00 | 0.01 | 0.01 | 56 | 1002.7 |
| 20260509192003 | 70 | 288 | 2.6 | 8.7 | 0.00 | 0.01 | 0.01 | 56 | 1002.7 |
| 20260509191501 | 70 | 144 | 2.6 | 8.7 | 0.00 | 0.01 | 0.01 | 61 | 1002.8 |
| 20260509190947 | 69 | 232 | 1.7 | 8.7 | 0.00 | 0.01 | 0.01 | 60 | 1003.0 |
| 20260509190447 | 68 | 211 | 2.6 | 9.6 | 0.00 | 0.01 | 0.01 | 63 | 1002.9 |
| 20260509190205 | 68 | 237 | 3.5 | 10.4 | 0.00 | 0.01 | 0.01 | 58 | 1002.9 |
| 20260509185440 | 68 | 178 | 2.6 | 10.4 | 0.00 | 0.01 | 0.01 | 59 | 1003.1 |
| 20260509184939 | 68 | 284 | 1.7 | 9.6 | 0.00 | 0.01 | 0.01 | 60 | 1003.3 |
| 20260509184655 | 68 | 126 | 0.9 | 4.3 | 0.00 | 0.01 | 0.01 | 66 | 1003.2 |
| 20260509183428 | 67 | 175 | 2.6 | 10.4 | 0.00 | 0.01 | 0.01 | 62 | 1003.2 |
| 20260509182923 | 67 | 261 | 1.7 | 5.2 | 0.00 | 0.01 | 0.01 | 66 | 1003.4 |
| 20260509182645 | 66 | 262 | 0.9 | 5.2 | 0.00 | 0.01 | 0.01 | 65 | 1003.4 |
| 20260509181916 | 65 | 221 | 0.9 | 3.5 | 0.00 | 0.01 | 0.01 | 72 | 1003.5 |
| 20260509181416 | 64 | 261 | 0.9 | 3.5 | 0.00 | 0.01 | 0.01 | 72 | 1003.5 |
| 20260509180915 | 64 | 196 | 1.7 | 5.2 | 0.00 | 0.01 | 0.01 | 75 | 1003.4 |
| 20260509180411 | 62 | 265 | 1.7 | 5.2 | 0.00 | 0.01 | 0.01 | 76 | 1003.4 |
| 20260509175908 | 61 | 279 | 1.7 | 4.3 | 0.00 | 0.01 | 0.01 | 77 | 1003.6 |
| 20260509175408 | 61 | 307 | 2.6 | 7.8 | 0.00 | 0.01 | 0.01 | 81 | 1003.5 |
| 20260509174904 | 61 | 309 | 3.5 | 8.7 | 0.00 | 0.01 | 0.01 | 75 | 1003.6 |
| 20260509174626 | 62 | 296 | 3.5 | 8.7 | 0.00 | 0.01 | 0.01 | 75 | 1003.9 |
| 20260509173904 | 64 | 308 | 1.7 | 8.7 | 0.00 | 0.01 | 0.01 | 69 | 1004.2 |
| 20260509173622 | 64 | 223 | 1.7 | 6.1 | 0.00 | 0.01 | 0.01 | 66 | 1004.1 |
| 20260509173118 | 64 | 276 | 2.6 | 7.0 | 0.00 | 0.01 | 0.01 | 66 | 1003.8 |
| 20260509172354 | 65 | 190 | 2.6 | 7.0 | 0.00 | 0.01 | 0.01 | 66 | 1003.8 |
| 20260509171844 | 65 | 132 | 1.7 | 6.1 | 0.00 | 0.01 | 0.01 | 69 | 1003.6 |
| 20260509171342 | 65 | 216 | 1.7 | 6.1 | 0.00 | 0.01 | 0.01 | 68 | 1003.7 |
| 20260509171100 | 64 | 252 | 1.7 | 5.2 | 0.00 | 0.01 | 0.01 | 71 | 1003.8 |
| 20260509170558 | 64 | 216 | 0.9 | 4.3 | 0.00 | 0.01 | 0.01 | 70 | 1003.9 |
| 20260509165832 | 63 | 272 | 1.7 | 9.6 | 0.00 | 0.01 | 0.01 | 70 | 1004.1 |
| 20260509165328 | 62 | 229 | 1.7 | 9.6 | 0.00 | 0.01 | 0.01 | 73 | 1004.3 |
| 20260509164822 | 62 | 217 | 1.7 | 6.1 | 0.00 | 0.01 | 0.01 | 75 | 1004.4 |
| 20260509164318 | 62 | 150 | 2.6 | 6.1 | 0.00 | 0.01 | 0.01 | 75 | 1004.3 |
| 20260509163817 | 62 | 210 | 1.7 | 5.2 | 0.00 | 0.01 | 0.01 | 73 | 1004.3 |
| 20260509163316 | 62 | 198 | 1.7 | 5.2 | 0.00 | 0.01 | 0.01 | 74 | 1004.5 |
| 20260509163036 | 62 | 244 | 1.7 | 5.2 | 0.00 | 0.01 | 0.01 | 76 | 1004.5 |
| 20260509162313 | 62 | 236 | 2.6 | 9.6 | 0.00 | 0.01 | 0.01 | 75 | 1004.5 |
| 20260509161800 | 61 | 193 | 1.7 | 9.6 | 0.00 | 0.01 | 0.01 | 76 | 1004.5 |
| 20260509161524 | 62 | 207 | 1.7 | 7.8 | 0.00 | 0.01 | 0.01 | 75 | 1004.6 |
| 20260509160751 | 62 | 163 | 2.6 | 7.8 | 0.00 | 0.01 | 0.01 | 75 | 1004.6 |
| 20260509160251 | 62 | 223 | 1.7 | 8.7 | 0.00 | 0.01 | 0.01 | 78 | 1004.7 |
| 20260509155748 | 62 | 230 | 0.9 | 8.7 | 0.00 | 0.01 | 0.01 | 75 | 1004.5 |
| 20260509155242 | 61 | 227 | 1.7 | 8.7 | 0.00 | 0.01 | 0.01 | 78 | 1004.6 |
| 20260509154735 | 61 | 259 | 1.7 | 8.7 | 0.00 | 0.01 | 0.01 | 81 | 1004.7 |
| 20260509154453 | 61 | 290 | 0.9 | 6.1 | 0.00 | 0.01 | 0.01 | 81 | 1004.8 |
| 20260509153728 | 61 | 232 | 0.9 | 6.1 | 0.00 | 0.01 | 0.01 | 81 | 1004.8 |
| 20260509153227 | 60 | 143 | 0.9 | 6.1 | 0.00 | 0.01 | 0.01 | 81 | 1004.8 |
| 20260509152723 | 59 | 184 | 1.7 | 4.3 | 0.00 | 0.01 | 0.01 | 81 | 1004.7 |
| 20260509152442 | 58 | 242 | 1.7 | 5.2 | 0.00 | 0.01 | 0.01 | 80 | 1004.8 |
| 20260509151717 | 58 | 204 | 1.7 | 5.2 | 0.00 | 0.01 | 0.01 | 81 | 1004.8 |
| 20260509151439 | 58 | 226 | 0.9 | 4.3 | 0.00 | 0.01 | 0.01 | 82 | 1004.8 |
| 20260509150711 | 58 | 219 | 0.0 | 5.2 | 0.00 | 0.01 | 0.01 | 81 | 1004.8 |
| 20260509150157 | 58 | 219 | 0.9 | 5.2 | 0.00 | 0.01 | 0.01 | 81 | 1004.8 |
| 20260509145644 | 59 | 143 | 0.9 | 4.3 | 0.00 | 0.01 | 0.01 | 80 | 1004.7 |
| 20260509145142 | 59 | 263 | 1.7 | 6.1 | 0.00 | 0.01 | 0.01 | 80 | 1004.8 |
| 20260509144643 | 59 | 219 | 1.7 | 6.1 | 0.00 | 0.01 | 0.01 | 80 | 1004.7 |
| 20260509144358 | 59 | 246 | 0.9 | 5.2 | 0.00 | 0.01 | 0.01 | 84 | 1004.7 |
| 20260509143900 | 58 | 242 | 0.9 | 5.2 | 0.00 | 0.01 | 0.01 | 84 | 1004.7 |
| 20260509142628 | 56 | 235 | 1.7 | 9.6 | 0.00 | 0.01 | 0.01 | 84 | 1004.8 |
| 20260509142126 | 56 | 216 | 1.7 | 9.6 | 0.00 | 0.01 | 0.01 | 84 | 1004.8 |
| 20260509141614 | 57 | 229 | 0.9 | 4.3 | 0.00 | 0.01 | 0.01 | 85 | 1004.8 |
| 20260509141113 | 56 | 302 | 0.9 | 8.7 | 0.00 | 0.01 | 0.01 | 86 | 1004.7 |
| 20260509140609 | 56 | 219 | 0.9 | 8.7 | 0.00 | 0.01 | 0.01 | 86 | 1004.7 |
| 20260509140056 | 56 | 215 | 1.7 | 5.2 | 0.00 | 0.01 | 0.01 | 87 | 1004.7 |
| 20260509135545 | 55 | 253 | 0.9 | 5.2 | 0.00 | 0.01 | 0.01 | 87 | 1004.8 |
| 20260509135040 | 55 | 217 | 0.9 | 5.2 | 0.00 | 0.01 | 0.01 | 87 | 1004.8 |
| 20260509134539 | 55 | 212 | 1.7 | 5.2 | 0.00 | 0.01 | 0.01 | 86 | 1004.8 |
| 20260509134034 | 55 | 217 | 0.9 | 4.3 | 0.00 | 0.01 | 0.01 | 87 | 1004.9 |
| 20260509133530 | 55 | 239 | 0.9 | 6.1 | 0.00 | 0.01 | 0.01 | 87 | 1004.9 |
| 20260509133250 | 55 | 218 | 1.7 | 6.1 | 0.00 | 0.01 | 0.01 | 87 | 1004.8 |
| 20260509132526 | 55 | 237 | 0.9 | 5.2 | 0.00 | 0.01 | 0.01 | 87 | 1004.9 |
| 20260509132020 | 55 | 247 | 0.9 | 4.3 | 0.00 | 0.01 | 0.01 | 87 | 1004.9 |
| 20260509131512 | 55 | 221 | 0.9 | 3.5 | 0.00 | 0.01 | 0.01 | 88 | 1004.9 |
| 20260509131229 | 54 | 211 | 0.9 | 4.3 | 0.00 | 0.01 | 0.01 | 88 | 1004.9 |
| 20260509130453 | 54 | 229 | 0.0 | 4.3 | 0.00 | 0.01 | 0.01 | 88 | 1004.9 |
| 20260509130217 | 54 | 134 | 0.9 | 4.3 | 0.00 | 0.01 | 0.01 | 88 | 1004.9 |
| 20260509125658 | 54 | 220 | 0.9 | 4.3 | 0.00 | 0.01 | 0.01 | 88 | 1005.0 |
| 20260509125149 | 54 | 229 | 0.9 | 2.6 | 0.00 | 0.01 | 0.01 | 88 | 1005.1 |
| 20260509124425 | 54 | 229 | 0.9 | 4.3 | 0.00 | 0.01 | 0.01 | 89 | 1005.1 |
| 20260509123915 | 54 | 171 | 0.9 | 4.3 | 0.00 | 0.01 | 0.01 | 89 | 1005.1 |
| 20260509123636 | 54 | 152 | 0.0 | 2.6 | 0.00 | 0.01 | 0.01 | 89 | 1005.2 |
| 20260509122402 | 53 | 187 | 0.0 | 2.6 | 0.00 | 0.01 | 0.01 | 90 | 1005.1 |
| 20260509122120 | 53 | 186 | 0.0 | 2.6 | 0.00 | 0.01 | 0.01 | 90 | 1005.2 |
| 20260509121354 | 53 | 79 | 0.9 | 3.5 | 0.00 | 0.01 | 0.01 | 90 | 1005.3 |
| 20260509120843 | 53 | 148 | 0.9 | 3.5 | 0.00 | 0.01 | 0.01 | 90 | 1005.4 |
| 20260509120345 | 53 | 212 | 0.0 | 3.5 | 0.00 | 0.01 | 0.01 | 90 | 1005.4 |
| 20260509115842 | 53 | 185 | 0.0 | 3.5 | 0.00 | 0.01 | 0.01 | 91 | 1005.3 |
| 20260509115338 | 53 | 179 | 0.9 | 3.5 | 0.00 | 0.01 | 0.01 | 91 | 1005.3 |
| 20260509114832 | 53 | 227 | 0.9 | 2.6 | 0.00 | 0.01 | 0.01 | 91 | 1005.2 |
| 20260509114321 | 52 | 192 | 0.0 | 1.7 | 0.00 | 0.01 | 0.01 | 91 | 1005.2 |
| 20260509113821 | 52 | 172 | 0.9 | 5.2 | 0.00 | 0.01 | 0.01 | 91 | 1005.2 |
| 20260509113320 | 52 | 180 | 0.9 | 5.2 | 0.00 | 0.01 | 0.01 | 92 | 1005.2 |
| 20260509112814 | 52 | 200 | 0.0 | 3.5 | 0.00 | 0.01 | 0.01 | 92 | 1005.2 |
| 20260509112536 | 52 | 220 | 0.0 | 3.5 | 0.00 | 0.01 | 0.01 | 92 | 1005.1 |
| 20260509111813 | 52 | 157 | 0.9 | 3.5 | 0.00 | 0.01 | 0.01 | 92 | 1005.0 |
| 20260509111234 | 51 | 191 | 0.9 | 3.5 | 0.00 | 0.01 | 0.01 | 92 | 1005.0 |
| 20260509110732 | 51 | 149 | 0.0 | 4.3 | 0.00 | 0.01 | 0.01 | 92 | 1005.1 |
| 20260509110232 | 51 | 225 | 0.0 | 4.3 | 0.00 | 0.01 | 0.01 | 92 | 1005.0 |
| 20260509105729 | 51 | 291 | 0.0 | 4.3 | 0.00 | 0.01 | 0.01 | 92 | 1005.0 |
| 20260509105225 | 51 | 163 | 0.0 | 1.7 | 0.00 | 0.01 | 0.01 | 92 | 1005.0 |
| 20260509104923 | 51 | 221 | 0.0 | 2.6 | 0.00 | 0.01 | 0.01 | 92 | 1005.0 |
| 20260509104135 | 51 | 231 | 0.0 | 2.6 | 0.00 | 0.01 | 0.01 | 92 | 1005.1 |
| 20260509103629 | 51 | 126 | 0.0 | 0.0 | 0.00 | 0.01 | 0.01 | 92 | 1005.0 |
| 20260509103129 | 51 | 130 | 0.0 | 1.7 | 0.00 | 0.01 | 0.01 | 92 | 1005.0 |
| 20260509102625 | 51 | 130 | 0.0 | 1.7 | 0.00 | 0.01 | 0.01 | 92 | 1005.0 |
| 20260509102111 | 51 | 126 | 0.0 | 1.7 | 0.00 | 0.01 | 0.01 | 92 | 1005.0 |
| 20260509101604 | 51 | 126 | 0.0 | 3.5 | 0.00 | 0.01 | 0.01 | 92 | 1005.0 |
| 20260509101104 | 51 | 127 | 0.0 | 3.5 | 0.00 | 0.01 | 0.01 | 92 | 1005.0 |
| 20260509100602 | 51 | 155 | 0.9 | 3.5 | 0.00 | 0.01 | 0.01 | 92 | 1005.1 |
| 20260509100056 | 51 | 209 | 0.0 | 2.6 | 0.00 | 0.01 | 0.01 | 92 | 1005.1 |
| 20260509095543 | 51 | 162 | 0.0 | 2.6 | 0.00 | 0.01 | 0.01 | 92 | 1005.1 |
| 20260509095043 | 51 | 150 | 0.0 | 2.6 | 0.00 | 0.01 | 0.01 | 92 | 1005.2 |
| 20260509094756 | 51 | 170 | 0.0 | 0.0 | 0.00 | 0.01 | 0.01 | 92 | 1005.2 |
| 20260509094013 | 51 | 170 | 0.0 | 1.7 | 0.00 | 0.01 | 0.01 | 92 | 1005.1 |
| 20260509093512 | 51 | 170 | 0.0 | 2.6 | 0.00 | 0.01 | 0.01 | 92 | 1005.1 |
| 20260509093002 | 51 | 168 | 0.0 | 2.6 | 0.00 | 0.01 | 0.01 | 91 | 1005.2 |
| 20260509092504 | 51 | 225 | 0.0 | 2.6 | 0.00 | 0.01 | 0.01 | 91 | 1005.3 |
| 20260509091955 | 51 | 232 | 0.0 | 2.6 | 0.00 | 0.01 | 0.01 | 91 | 1005.3 |
| 20260509091650 | 51 | 223 | 0.0 | 5.2 | 0.00 | 0.01 | 0.01 | 91 | 1005.3 |
| 20260509090921 | 51 | 213 | 0.9 | 5.2 | 0.00 | 0.01 | 0.01 | 91 | 1005.3 |
| 20260509090419 | 51 | 215 | 0.9 | 4.3 | 0.00 | 0.01 | 0.01 | 91 | 1005.3 |
| 20260509085900 | 51 | 244 | 0.9 | 4.3 | 0.00 | 0.01 | 0.01 | 91 | 1005.3 |
| 20260509085359 | 51 | 200 | 0.9 | 3.5 | 0.00 | 0.01 | 0.01 | 91 | 1005.4 |
| 20260509084856 | 51 | 226 | 0.0 | 1.7 | 0.00 | 0.01 | 0.01 | 91 | 1005.4 |
| 20260509084354 | 51 | 207 | 0.0 | 3.5 | 0.00 | 0.01 | 0.01 | 91 | 1005.4 |
| 20260509083853 | 52 | 161 | 0.0 | 3.5 | 0.00 | 0.01 | 0.01 | 91 | 1005.4 |
| 20260509083350 | 52 | 208 | 0.0 | 4.3 | 0.00 | 0.01 | 0.01 | 91 | 1005.4 |
| 20260509082844 | 52 | 212 | 0.0 | 4.3 | 0.00 | 0.01 | 0.01 | 92 | 1005.4 |
| 20260509082334 | 52 | 202 | 0.0 | 0.9 | 0.00 | 0.01 | 0.01 | 91 | 1005.3 |
| 20260509082052 | 52 | 184 | 0.0 | 0.0 | 0.00 | 0.01 | 0.01 | 92 | 1005.3 |
| 20260509081329 | 52 | 184 | 0.0 | 1.7 | 0.00 | 0.01 | 0.01 | 92 | 1005.4 |
| 20260509080829 | 52 | 184 | 0.0 | 1.7 | 0.00 | 0.01 | 0.01 | 92 | 1005.3 |
| 20260509080328 | 52 | 214 | 0.0 | 0.0 | 0.00 | 0.01 | 0.01 | 92 | 1005.2 |
| 20260509075826 | 52 | 214 | 0.0 | 0.0 | 0.00 | 0.01 | 0.01 | 92 | 1005.3 |
| 20260509075548 | 52 | 202 | 0.0 | 1.7 | 0.00 | 0.01 | 0.01 | 92 | 1005.4 |
| 20260509075044 | 51 | 202 | 0.0 | 1.7 | 0.00 | 0.01 | 0.01 | 92 | 1005.4 |
| 20260509074316 | 51 | 212 | 0.0 | 1.7 | 0.00 | 0.01 | 0.01 | 92 | 1005.5 |
| 20260509073753 | 51 | 208 | 0.0 | 2.6 | 0.00 | 0.01 | 0.01 | 92 | 1005.5 |
| 20260509073231 | 51 | 208 | 0.9 | 2.6 | 0.00 | 0.01 | 0.01 | 92 | 1005.5 |
| 20260509072952 | 51 | 213 | 0.0 | 2.6 | 0.00 | 0.01 | 0.01 | 92 | 1005.5 |
| 20260509072231 | 51 | 223 | 0.0 | 5.2 | 0.00 | 0.01 | 0.01 | 92 | 1005.5 |
| 20260509071715 | 51 | 223 | 0.0 | 5.2 | 0.00 | 0.01 | 0.01 | 92 | 1005.6 |
| 20260509071215 | 51 | 210 | 0.0 | 2.6 | 0.00 | 0.01 | 0.01 | 92 | 1005.5 |
| 20260509070713 | 51 | 213 | 0.0 | 2.6 | 0.00 | 0.01 | 0.01 | 92 | 1005.5 |
| 20260509070212 | 51 | 216 | 0.0 | 4.3 | 0.00 | 0.01 | 0.01 | 92 | 1005.6 |
| 20260509065702 | 51 | 216 | 0.0 | 4.3 | 0.00 | 0.01 | 0.01 | 92 | 1005.6 |
| 20260509065133 | 51 | 183 | 0.0 | 3.5 | 0.00 | 0.01 | 0.01 | 92 | 1005.7 |
| 20260509064625 | 51 | 183 | 0.0 | 3.5 | 0.00 | 0.01 | 0.01 | 92 | 1005.7 |
| 20260509064126 | 51 | 209 | 0.0 | 0.0 | 0.00 | 0.01 | 0.01 | 92 | 1005.8 |
| 20260509063613 | 51 | 209 | 0.0 | 0.0 | 0.00 | 0.01 | 0.01 | 92 | 1005.8 |
| 20260509062534 | 51 | 209 | 0.0 | 1.7 | 0.01 | 0.01 | 0.01 | 92 | 1005.9 |
| 20260509062024 | 51 | 171 | 0.0 | 0.0 | 0.01 | 0.01 | 0.01 | 92 | 1006.2 |
| 20260509061520 | 51 | 171 | 0.0 | 1.7 | 0.01 | 0.01 | 0.01 | 92 | 1006.2 |
| 20260509061015 | 51 | 171 | 0.0 | 1.7 | 0.01 | 0.01 | 0.01 | 92 | 1006.2 |
| 20260509060728 | 51 | 148 | 0.0 | 2.6 | 0.01 | 0.01 | 0.01 | 92 | 1006.3 |
| 20260509055936 | 51 | 139 | 0.0 | 2.6 | 0.01 | 0.01 | 0.01 | 91 | 1006.3 |
| 20260509055436 | 51 | 148 | 0.0 | 0.0 | 0.01 | 0.01 | 0.01 | 91 | 1006.4 |
| 20260509055158 | 51 | 148 | 0.0 | 1.7 | 0.01 | 0.01 | 0.01 | 91 | 1006.5 |
| 20260509054431 | 51 | 148 | 0.0 | 1.7 | 0.01 | 0.01 | 0.01 | 91 | 1006.7 |
| 20260509053918 | 51 | 134 | 0.0 | 0.9 | 0.01 | 0.01 | 0.01 | 90 | 1006.7 |
| 20260509053127 | 52 | 134 | 0.0 | 1.7 | 0.00 | 0.00 | 0.00 | 89 | 1006.8 |
| 20260509052401 | 52 | 134 | 0.0 | 2.6 | 0.00 | 0.00 | 0.00 | 89 | 1006.9 |
| 20260509051856 | 52 | 133 | 0.0 | 2.6 | 0.00 | 0.00 | 0.00 | 89 | 1007.1 |
| 20260509051339 | 52 | 133 | 0.0 | 1.7 | 0.00 | 0.00 | 0.00 | 88 | 1007.1 |
| 20260509050834 | 52 | 128 | 0.0 | 2.6 | 0.00 | 0.00 | 0.00 | 88 | 1007.1 |
| 20260509050550 | 52 | 219 | 0.0 | 2.6 | 0.00 | 0.00 | 0.00 | 88 | 1007.2 |
| 20260509045823 | 52 | 207 | 0.0 | 3.5 | 0.00 | 0.00 | 0.00 | 88 | 1007.1 |
| 20260509045321 | 52 | 207 | 0.0 | 3.5 | 0.00 | 0.00 | 0.00 | 88 | 1007.1 |